User: anonymous   Login
Location: Amon Carter Post Office
(32.8281°N, 97.0484°W)
Time: 04:24:48
(UTC+00:00)
Language:

Meteor 2-15 Rocket - Orbit

View from above orbital plane
View from above orbital plane
View from above satellite
View from above satellite

Ground track
Ground track

The orbit data is extracted from the following two-line orbital elements,

1 17291U 87001B   22144.70035139  .00000008  00000-0 -60567-5 0  9995
2 17291  82.4693 213.2133 0011945  36.2742 323.9226 13.84593996787852
Epoch (UTC): 24 May 2022 16:48:30
Eccentricity: 0.0011945
inclination: 82.4693°
perigee height: 939 km
apogee height: 956 km
right ascension of ascending node: 213.2133°
argument of perigee: 36.2742°
revolutions per day: 13.84593996
mean anomaly at epoch: 323.9226°
orbit number at epoch: 78785

The dashed part of the orbit path shows where the satellite is in the earth's shadow,  

DLR